EEST,Max TemperatureF,Mean TemperatureF,Min TemperatureF,Max Dew PointF,MeanDew PointF,Min DewpointF,Max Humidity, Mean Humidity, Min Humidity, Max Sea Level PressureIn, Mean Sea Level PressureIn, Min Sea Level PressureIn, Max VisibilityMiles, Mean VisibilityMiles, Min VisibilityMiles, Max Wind SpeedMPH, Mean Wind SpeedMPH, Max Gust SpeedMPH,PrecipitationIn, CloudCover, Events, WindDirDegrees
2012-9-1,95,82,68,75,68,59,94,66,30,29.83,29.78,29.74,6,6,6,16,7,,0.00,1,,146
2012-9-2,97,83,69,72,63,50,100,58,20,29.83,29.81,29.77,6,6,6,20,6,,0.00,,,140
2012-9-3,99,84,68,68,64,57,83,56,20,29.80,29.76,29.70,6,5,4,52,7,,0.00,,,168
2012-9-4,100,84,68,75,66,52,94,62,12,29.77,29.74,29.68,6,6,6,15,6,,0.00,,,159
2012-9-5,96,83,70,77,73,64,100,74,36,29.80,29.76,29.73,6,6,6,15,5,,0.00,,,156
2012-9-6,94,82,71,75,72,58,100,74,20,29.80,29.77,29.74,6,6,6,16,6,,0.00,,,144
2012-9-7,93,82,72,75,73,68,100,74,43,29.77,29.74,29.68,6,6,6,16,6,,0.00,3,,144
2012-9-8,93,82,71,73,71,66,100,70,37,29.74,29.70,29.65,6,6,6,14,5,,0.00,2,,158
2012-9-9,95,82,69,72,68,59,94,65,23,29.74,29.69,29.65,12,6,6,16,6,,0.00,3,,168
2012-9-10,97,82,68,72,62,43,94,58,10,29.78,29.74,29.71,12,6,6,16,6,,0.00,1,,336
2012-9-11,95,80,66,70,63,57,88,59,23,29.80,29.77,29.74,6,6,6,14,6,,0.00,,,110
2012-9-12,91,81,71,72,68,64,88,66,34,29.81,29.78,29.74,6,6,6,17,7,,0.00,3,,150
2012-9-13,90,80,69,70,66,57,94,65,25,29.89,29.82,29.77,12,6,6,15,7,,0.00,2,,130
2012-9-14,90,77,64,66,62,54,94,61,26,29.92,29.89,29.83,12,6,6,15,7,,0.00,1,,170
2012-9-15,95,80,66,70,64,59,88,63,21,29.89,29.80,29.71,6,6,6,13,6,,0.00,,,29
2012-9-16,93,80,66,72,68,64,100,71,38,29.80,29.76,29.74,6,6,6,13,7,,0.00,,,177
2012-9-17,92,80,68,73,69,64,100,73,35,29.86,29.81,29.79,12,6,6,15,6,,0.00,2,,157
2012-9-18,92,80,68,72,69,66,100,71,34,29.86,29.82,29.77,6,6,6,13,6,,0.00,2,,145
2012-9-19,89,77,65,70,66,63,100,68,32,29.83,29.81,29.78,6,6,6,18,6,,0.00,2,,131
2012-9-20,89,78,67,68,65,60,88,64,28,29.89,29.84,29.80,6,6,6,17,8,,0.00,3,,126
2012-9-21,88,77,66,68,66,63,94,67,34,29.89,29.87,29.83,12,6,6,16,6,,0.00,3,,126
2012-9-22,89,80,70,72,68,63,100,72,36,29.92,29.87,29.83,12,6,2,16,6,,0.00,3,Rain,119
2012-9-23,90,78,66,68,64,57,100,67,23,29.95,29.90,29.86,6,6,6,17,6,,0.00,1,,104
2012-9-24,90,76,62,66,61,48,100,64,16,29.89,29.87,29.83,6,6,6,14,6,,0.00,,,22
2012-9-25,89,76,64,70,65,59,100,70,31,29.86,29.84,29.80,12,9,6,13,6,,0.00,1,,120
2012-9-26,92,79,66,72,67,63,100,72,38,29.92,29.88,29.86,12,6,6,13,6,,0.00,1,,313
2012-9-27,93,80,66,68,66,63,100,68,27,29.95,29.92,29.88,12,8,6,14,6,,0.00,,,282
2012-9-28,101,82,64,64,49,27,88,41,6,29.95,29.91,29.86,6,6,6,13,6,,0.00,,,10
2012-9-29,102,85,68,72,51,39,83,36,7,29.98,29.91,29.89,6,6,6,10,5,,0.00,1,,258
2012-9-30,96,81,66,75,69,59,100,71,23,30.01,29.96,29.90,12,6,6,15,5,,0.00,5,,30